DECAYED

STARLINK-3870, 52451 (Decayed)

Orbit data source: Space-Track

STARLINK-3870, 52451 was a payload satellite owned by SpaceX/Seattle (US) in LEO that was launched on Fri, 06 May 2022 UTC via an FALCON 9 launch vehicle from the Air Force Eastern Test Range (AFETR). Payload-class satellites include a variety of spacecraft equipped with specific instruments for various scientific and technological missions. These include communications satellites like Starlink; space stations such as the ISS; scientific satellites like the Hubble; Earth observation satellites from companies like Planet Labs, Umbra, and HawkEye 360; GPS; miniature CubeSats for education and research; and military/defense satellites.

Not visible in the next 10 days
Identifier
52451, 2022-049A
Orbit
Decayed
Country
Flag of USUS
Related business
Manufacturer
SpaceX/Seattle
Mission
Decayed Commercial Communications
Bus & Motor
STARLINK, Unknown motor
Mass
297 kg wet, ~220 kg dry
Launch date (UTC)
2022-05-06 (4 years ago)
Launch vehicle
FALCON 9
Launch site
Air Force Eastern Test Range (AFETR)
Object type
Payload
Rocket body
Debris
Shape & HBR
Box + 1 Pan, 10.1 m
Radar Cross Section
13.562 m², Large (>1 m²)

Expand to show TLE details & history
Last TLE update: 2 months ago

TLE from 2 months ago
0 STARLINK-3870
1 52451U 22049A   26146.02623728  .09852349  12440-4  20819-3 0  9991
2 52451  53.2006  51.9162 0010518 244.9051 115.0909 16.45990611224206
Epoch: 2026-05-26T00:37Z
TLE epoch observation values (Epoch: 2026-05-26T00:37:46.900Z)
Latitude
-0.00001°
Longitude
158.86519°
Altitude
153.781 km
Speed
7.813 km/s
True Right ascension
03h 27m 39s
True Declination
0° 00' 00"
Sunlit
Object was in daylight at epoch
Visualization orbit readout
Latitude
Unknown
Longitude
Unknown
Altitude
Unknown
Speed
Unknown
Apparent Right ascension
Unknown
Apparent Declination
Unknown
Sunlit
N/A
Visualization observer readout
Local Sidereal Time
21:12:55
Azimuth
Unknown
Elevation
Unknown
Doppler factor
Unknown
Orbital elements
Apogee altitude
157.043 km
Perigee altitude
143.31 km
Semi-major axis
6,528.314 km
Eccentricity
0.00105
Inclination
53.2006°
RAAN
51.9162°
Arg. of periapsis
244.9051°
True anomaly
115.19999°
Mean anomaly
115.0909°
Eccentric anomaly
115.14545°
Mean motion
4.11473 °/min
Orbital period
87.49 mins
BSTAR
0.00020819
Loading maneuver chart data...
Computing Atmospheric mass density...
Loading historical data...
Loading historical data...
Loading historical data...
Loading historical data...
Loading historical data...
Loading historical data...
Loading historical data...

Documentation

Showing up to 5 results
|